Location: Bonny Doon Airfield
(37.0704°N, 122.1252°W)
Time: 19:53:18
(UTC-07:00)

BREEZE M DEB (TANK) - Visible Passes

Search period start: 04 May 2016 00:00
Search period end: 14 May 2016 00:00
Orbit: 334 x 13719 km, 49.6° (Epoch: 02 May)

Date Brightness Start Highest point End Pass type
(mag) Time Alt. Az. Time Alt. Az. Time Alt. Az.
04 May 6.4 04:40:59 18° SW 05:18:50 76° NW 05:27:47 10° NE visible
05 May 7.7 02:08:14 37° S 02:33:07 55° SE 02:49:10 10° ENE visible
05 May 8.5 23:35:23 21° SE 23:42:01 21° ESE 00:03:30 10° E visible
06 May 6.7 03:52:48 26° SW 04:27:19 89° NW 04:37:52 10° NE visible
07 May 8.0 01:19:46 37° SSE 01:39:41 47° SE 01:58:26 10° ENE visible
07 May 6.2 05:46:18 10° WSW 06:18:43 51° NNW 06:25:39 10° NE visible
07 May 8.7 22:46:38 14° ESE 22:48:35 14° ESE 23:05:59 10° E visible
08 May 7.0 03:03:59 33° SSW 03:35:16 79° SE 03:47:46 10° NE visible
09 May 8.3 00:30:40 34° SSE 00:45:50 39° SE 01:07:11 10° ENE visible
09 May 6.4 04:47:59 13° WSW 05:27:28 63° NNW 05:35:44 10° NE visible
10 May 7.4 02:14:29 38° SSW 02:42:38 68° SE 02:57:27 10° ENE visible
10 May 8.4 22:43:08 10° SSE 23:51:47 31° ESE 00:15:08 10° ENE visible
11 May 6.6 03:58:02 21° WSW 04:35:54 75° NW 04:45:41 10° NE visible
12 May 7.7 00:24:12 10° SSW 01:49:21 59° SE 02:06:52 10° ENE visible
12 May 8.5 22:49:54 23° SE 22:57:49 24° ESE 23:21:42 10° E visible
13 May 6.9 03:07:01 28° SW 03:43:56 87° NW 03:55:30 10° NE visible
